EDT,Max TemperatureF,Mean TemperatureF,Min TemperatureF,Max Dew PointF,MeanDew PointF,Min DewpointF,Max Humidity, Mean Humidity, Min Humidity, Max Sea Level PressureIn, Mean Sea Level PressureIn, Min Sea Level PressureIn, Max VisibilityMiles, Mean VisibilityMiles, Min VisibilityMiles, Max Wind SpeedMPH, Mean Wind SpeedMPH, Max Gust SpeedMPH,PrecipitationIn, CloudCover, Events, WindDirDegrees
2013-10-1,83,68,53,62,57,53,100,73,45,30.16,30.10,30.05,10,8,1,10,2,25,0.00,0,,106
2013-10-2,85,70,54,65,58,54,100,72,43,30.16,30.11,30.07,10,7,0,10,2,21,0.00,0,Fog,70
2013-10-3,85,72,58,64,60,57,100,70,40,30.13,30.10,30.06,10,7,0,7,3,14,0.00,0,Fog,118
2013-10-4,87,72,57,68,62,58,100,72,44,30.16,30.10,30.07,10,8,2,9,1,13,0.00,0,,101
2013-10-5,87,73,58,68,64,58,100,73,45,30.13,30.07,30.01,10,7,1,10,2,23,0.00,0,,127
2013-10-6,87,72,57,72,65,57,100,76,51,30.04,29.98,29.86,10,4,0,12,3,17,0.40,2,Fog-Rain,149
2013-10-7,78,70,62,72,69,56,100,87,73,29.93,29.85,29.81,10,5,0,10,3,14,0.03,7,Fog-Rain,343
2013-10-8,75,67,59,61,57,55,87,72,57,30.14,30.01,29.90,10,10,10,18,9,23,0.00,7,,30
2013-10-9,78,67,55,59,55,52,100,73,45,30.18,30.13,30.08,10,10,9,16,7,21,0.00,4,,44
2013-10-10,83,67,50,60,55,50,100,70,40,30.14,30.07,30.00,10,10,10,13,4,29,0.00,0,,292
2013-10-11,84,68,52,60,56,52,100,67,34,30.05,30.00,29.95,10,9,6,17,5,28,0.00,0,,289
2013-10-12,86,69,51,59,55,51,100,66,32,30.08,30.02,29.98,10,9,7,18,3,29,0.00,0,,285
2013-10-13,86,70,54,64,60,54,100,72,43,30.17,30.11,30.06,10,10,7,14,4,25,0.00,2,,28
2013-10-14,73,66,59,63,61,59,100,82,64,30.20,30.14,30.10,10,10,6,13,7,22,0.00,6,,36
2013-10-15,72,65,58,63,60,58,100,83,66,30.13,30.09,30.03,10,10,10,13,5,29,0.00,7,,47
2013-10-16,82,68,53,63,57,54,100,71,42,30.06,30.01,29.95,10,9,5,7,2,22,0.00,1,,255
2013-10-17,84,71,57,69,62,57,100,74,47,29.99,29.94,29.88,10,7,1,13,4,22,0.07,3,Rain,238
2013-10-18,77,70,62,70,62,57,97,79,60,30.03,29.96,29.91,10,10,8,12,4,14,T,7,,318
2013-10-19,72,65,58,63,57,53,97,75,53,29.99,29.96,29.93,10,10,10,13,4,18,0.01,5,,299
2013-10-20,75,62,49,56,52,48,100,71,41,30.06,30.01,29.97,10,8,3,17,2,21,0.00,0,,295
2013-10-21,74,62,50,61,56,49,100,81,61,30.11,30.06,30.01,10,9,6,8,2,22,0.00,2,,105
2013-10-22,73,65,57,63,61,57,100,83,66,30.02,29.95,29.86,10,8,3,7,1,35,0.03,6,Rain,313
2013-10-23,72,60,47,57,43,30,100,62,23,30.09,29.94,29.86,10,10,7,94,10,120,0.00,0,,301
2013-10-24,70,54,37,47,38,31,100,63,26,30.23,30.16,30.09,10,10,6,10,3,12,0.00,0,,286
2013-10-25,62,49,36,43,35,25,100,63,25,30.36,30.30,30.19,10,10,7,14,6,,0.00,1,,332
2013-10-26,66,48,30,43,35,29,100,65,30,30.34,30.27,30.18,10,10,7,9,2,12,0.00,0,,246
2013-10-27,75,56,37,54,45,37,100,70,40,30.19,30.14,30.10,10,8,5,9,1,17,0.00,1,,281
2013-10-28,74,64,54,57,55,54,100,75,49,30.27,30.22,30.14,10,9,6,20,3,25,0.06,6,,24
2013-10-29,78,63,48,56,54,49,100,72,43,30.34,30.27,30.23,10,7,2,8,1,12,0.00,3,,156
2013-10-30,81,66,50,57,54,50,100,70,39,30.32,30.24,30.17,10,8,1,9,1,12,0.00,0,,145
2013-10-31,80,66,52,63,57,51,100,74,48,30.20,30.07,29.94,10,8,2,17,6,23,0.01,2,,159